{"data":{"norad_id":60944,"epoch":"2026-05-25T03:28:09.463008Z","epoch_age_seconds":59004,"freshness":"FRESH","line1":"1 60944U 24155W   26145.14455397  .00000753  00000+0  37536-4 0  9998","line2":"2 60944  53.1590 134.7363 0001134  93.4630 266.6501 15.30194583 98090","mean_motion":15.30194583,"eccentricity":0.0001134,"inclination_deg":53.159,"raan_deg":134.7363,"arg_perigee_deg":93.463,"mean_anomaly_deg":266.6501,"bstar":3.7536e-5,"rev_number":9809,"period_min":94.105678846205,"perigee_km":474.45407169379,"apogee_km":476.00841561145,"semimajor_km":6853.3682436526,"source":"CELESTRAK","updated_at":"2026-05-25T13:38:19.321835Z"}}